When you browse on this site, cookies collect data to enhance your experience and personalize the content and advertising you see.
Visit our Privacy Policy to learn more. By continuing to use the site, you agree to this use of cookies and data.
  • In Czech Republic
  • List of Countries
  • For 7 days
  • Water Temperature
  • Satellite Maps
  • Weather Map
  • Weather Widgets
  • user-avatar
    Login

    Hourly Weather Río Gallegos

    Today, 17 January, Thursday

    Time Temperature Precipitation Wind Pressure Humidity
    00:00 +9°C° 0 mm 5 mps 762 mmHg 60%
    01:00 +9°C° 0 mm 5 mps 762 mmHg 62%
    02:00 +9°C° 0 mm 5 mps 762 mmHg 62%
    03:00 +9°C° 0 mm 6 mps 762 mmHg 61%
    04:00 +9°C° 0 mm 6 mps 762 mmHg 61%
    05:00 +10°C° 0 mm 7 mps 761 mmHg 58%
    06:00 +11°C° 0 mm 9 mps 761 mmHg 55%
    07:00 +11°C° 0 mm 10 mps 761 mmHg 52%
    08:00 +13°C° 0 mm 11 mps 761 mmHg 48%
    09:00 +15°C° 0 mm 13 mps 761 mmHg 45%
    10:00 +18°C° 0 mm 14 mps 761 mmHg 42%
    11:00 +18°C° 0 mm 15 mps 761 mmHg 42%
    12:00 +18°C° 0 mm 15 mps 761 mmHg 43%
    13:00 +18°C° 0 mm 16 mps 760 mmHg 43%
    14:00 +17°C° 0 mm 15 mps 760 mmHg 44%
    15:00 +17°C° 0 mm 15 mps 761 mmHg 45%
    16:00 +17°C° 0 mm 15 mps 761 mmHg 46%
    17:00 +15°C° 0 mm 14 mps 761 mmHg 48%
    18:00 +14°C° 0 mm 13 mps 761 mmHg 50%
    19:00 +13°C° 0 mm 13 mps 762 mmHg 52%
    20:00 +13°C° 0 mm 12 mps 762 mmHg 55%
    21:00 +12°C° 0 mm 11 mps 762 mmHg 57%
    22:00 +11°C° 0 mm 10 mps 762 mmHg 59%
    23:00 +11°C° 0 mm 9 mps 762 mmHg 61%

    Tomorrow, 18 January, Friday

    Time Temperature Precipitation Wind Pressure Humidity
    00:00 +11°C° 0 mm 8 mps 762 mmHg 63%
    01:00 +10°C° 0 mm 7 mps 762 mmHg 64%
    02:00 +10°C° 0 mm 7 mps 761 mmHg 65%
    03:00 +10°C° 0 mm 6 mps 761 mmHg 65%
    04:00 +10°C° 0 mm 5 mps 761 mmHg 66%
    05:00 +11°C° 0 mm 6 mps 761 mmHg 61%
    06:00 +13°C° 0 mm 6 mps 761 mmHg 56%
    07:00 +14°C° 0 mm 6 mps 761 mmHg 51%
    08:00 +16°C° 0 mm 6 mps 760 mmHg 47%
    09:00 +17°C° 0 mm 6 mps 760 mmHg 43%
    10:00 +20°C° 0 mm 6 mps 759 mmHg 39%
    11:00 +20°C° 0 mm 6 mps 759 mmHg 40%
    12:00 +20°C° 0 mm 5 mps 758 mmHg 42%
    13:00 +20°C° 0 mm 4 mps 758 mmHg 43%
    14:00 +20°C° 0 mm 4 mps 757 mmHg 43%
    15:00 +20°C° 0 mm 5 mps 757 mmHg 43%
    16:00 +20°C° 0 mm 5 mps 756 mmHg 44%
    17:00 +20°C° 0 mm 4 mps 756 mmHg 46%
    18:00 +20°C° 0 mm 4 mps 755 mmHg 48%
    19:00 +19°C° 0 mm 3 mps 755 mmHg 50%
    20:00 +19°C° 0.1 mm 3 mps 754 mmHg 52%
    21:00 +18°C° 0.1 mm 4 mps 754 mmHg 55%
    22:00 +18°C° 0.1 mm 4 mps 753 mmHg 57%
    23:00 +17°C° 0.6 mm 4 mps 753 mmHg 61%

    Day after tomorrow, 19 January, Saturday

    Time Temperature Precipitation Wind Pressure Humidity
    00:00 +17°C° 0.6 mm 3 mps 752 mmHg 64%
    01:00 +17°C° 0.6 mm 2 mps 751 mmHg 68%
    02:00 +17°C° 0 mm 2 mps 750 mmHg 66%
    03:00 +16°C° 0 mm 3 mps 750 mmHg 64%
    04:00 +16°C° 0 mm 3 mps 749 mmHg 62%
    05:00 +16°C° 0.3 mm 2 mps 748 mmHg 64%
    06:00 +17°C° 0.3 mm 2 mps 748 mmHg 65%
    07:00 +17°C° 0.3 mm 2 mps 748 mmHg 66%
    08:00 +18°C° 0 mm 4 mps 747 mmHg 60%
    09:00 +19°C° 0 mm 5 mps 747 mmHg 55%
    10:00 +20°C° 0 mm 7 mps 747 mmHg 49%
    11:00 +20°C° 0 mm 7 mps 747 mmHg 51%
    12:00 +20°C° 0 mm 7 mps 747 mmHg 53%
    13:00 +18°C° 0 mm 8 mps 746 mmHg 55%
    14:00 +18°C° 0.2 mm 8 mps 747 mmHg 55%
    15:00 +17°C° 0.2 mm 9 mps 747 mmHg 55%
    16:00 +17°C° 0.2 mm 9 mps 747 mmHg 56%
    17:00 +17°C° 0.1 mm 9 mps 748 mmHg 56%
    18:00 +16°C° 0.1 mm 8 mps 748 mmHg 57%
    19:00 +15°C° 0.1 mm 8 mps 748 mmHg 57%
    20:00 +15°C° 0 mm 7 mps 749 mmHg 59%
    21:00 +14°C° 0 mm 6 mps 749 mmHg 61%
    22:00 +14°C° 0 mm 5 mps 749 mmHg 62%
    23:00 +13°C° 0 mm 4 mps 749 mmHg 64%

    20 January, Sunday

    Time Temperature Precipitation Wind Pressure Humidity
    00:00 +12°C° 0 mm 4 mps 749 mmHg 66%
    01:00 +12°C° 0 mm 4 mps 749 mmHg 67%
    02:00 +11°C° 0.1 mm 4 mps 749 mmHg 66%
    03:00 +9°C° 0.1 mm 5 mps 750 mmHg 65%
    04:00 +9°C° 0.1 mm 6 mps 750 mmHg 64%
    05:00 +8°C° 1.1 mm 5 mps 750 mmHg 64%
    06:00 +8°C° 1.1 mm 4 mps 750 mmHg 63%
    07:00 +7°C° 1.1 mm 4 mps 750 mmHg 63%
    08:00 +8°C° 0.6 mm 3 mps 750 mmHg 63%
    09:00 +8°C° 0.6 mm 2 mps 750 mmHg 63%
    10:00 +9°C° 0.6 mm 1 mps 751 mmHg 63%
    11:00 +10°C° 0.2 mm 1 mps 751 mmHg 62%
    12:00 +10°C° 0.2 mm 1 mps 751 mmHg 61%
    13:00 +11°C° 0.2 mm 1 mps 751 mmHg 61%
    14:00 +10°C° 0 mm 2 mps 751 mmHg 59%
    15:00 +11°C° 0 mm 3 mps 751 mmHg 57%
    16:00 +11°C° 0 mm 3 mps 752 mmHg 56%
    17:00 +11°C° 0 mm 3 mps 752 mmHg 54%
    18:00 +12°C° 0 mm 4 mps 752 mmHg 52%
    19:00 +12°C° 0 mm 4 mps 753 mmHg 51%
    20:00 +11°C° 0 mm 4 mps 753 mmHg 53%
    21:00 +10°C° 0 mm 3 mps 753 mmHg 54%
    22:00 +9°C° 0 mm 3 mps 753 mmHg 56%
    23:00 +9°C° 0 mm 2 mps 753 mmHg 58%

    21 January, Monday

    Time Temperature Precipitation Wind Pressure Humidity
    00:00 +8°C° 0 mm 2 mps 753 mmHg 60%
    01:00 +9°C° 0 mm 1 mps 752 mmHg 61%
    02:00 +8°C° 0 mm 2 mps 752 mmHg 63%
    03:00 +8°C° 0 mm 3 mps 751 mmHg 64%
    04:00 +8°C° 0 mm 4 mps 751 mmHg 66%
    05:00 +9°C° 0 mm 6 mps 750 mmHg 63%
    06:00 +9°C° 0 mm 8 mps 750 mmHg 60%
    07:00 +10°C° 0 mm 9 mps 749 mmHg 57%
    08:00 +12°C° 0 mm 9 mps 748 mmHg 54%
    09:00 +13°C° 0 mm 8 mps 748 mmHg 50%
    10:00 +15°C° 0 mm 8 mps 747 mmHg 47%
    11:00 +16°C° 0 mm 8 mps 746 mmHg 42%
    12:00 +17°C° 0 mm 8 mps 745 mmHg 38%
    13:00 +18°C° 0 mm 8 mps 744 mmHg 33%
    14:00 +17°C° 0.4 mm 6 mps 744 mmHg 40%
    15:00 +15°C° 0.4 mm 4 mps 743 mmHg 47%
    16:00 +15°C° 0.4 mm 2 mps 743 mmHg 54%
    17:00 +14°C° 0.1 mm 3 mps 742 mmHg 52%
    18:00 +14°C° 0.1 mm 3 mps 742 mmHg 51%
    19:00 +14°C° 0.1 mm 3 mps 742 mmHg 49%
    20:00 +14°C° 0 mm 4 mps 742 mmHg 49%
    21:00 +13°C° 0 mm 5 mps 742 mmHg 48%
    22:00 +11°C° 0 mm 6 mps 742 mmHg 47%
    23:00 +10°C° 0 mm 7 mps 742 mmHg 48%

    22 January, Tuesday

    Time Temperature Precipitation Wind Pressure Humidity
    00:00 +8°C° 0 mm 9 mps 742 mmHg 49%
    01:00 +8°C° 0 mm 10 mps 742 mmHg 49%
    02:00 +7°C° 0 mm 10 mps 742 mmHg 56%
    03:00 +6°C° 0 mm 11 mps 743 mmHg 62%
    04:00 +6°C° 0 mm 11 mps 743 mmHg 68%
    05:00 +5°C° 0 mm 12 mps 744 mmHg 63%
    06:00 +7°C° 0 mm 13 mps 744 mmHg 57%
    07:00 +6°C° 0 mm 14 mps 745 mmHg 52%
    08:00 +8°C° 0 mm 14 mps 746 mmHg 48%
    09:00 +8°C° 0 mm 14 mps 746 mmHg 45%
    10:00 +8°C° 0 mm 14 mps 747 mmHg 41%
    11:00 +8°C° 0 mm 14 mps 747 mmHg 40%
    12:00 +8°C° 0 mm 14 mps 748 mmHg 39%
    13:00 +8°C° 0 mm 13 mps 748 mmHg 37%
    14:00 +8°C° 0 mm 13 mps 749 mmHg 38%
    15:00 +8°C° 0 mm 13 mps 749 mmHg 38%
    16:00 +8°C° 0 mm 13 mps 749 mmHg 39%
    17:00 +8°C° 0 mm 13 mps 750 mmHg 41%
    18:00 +8°C° 0 mm 12 mps 750 mmHg 43%
    19:00 +7°C° 0 mm 12 mps 751 mmHg 45%
    20:00 +7°C° 0 mm 10 mps 751 mmHg 49%
    21:00 +6°C° 0 mm 8 mps 751 mmHg 52%
    22:00 +5°C° 0 mm 6 mps 751 mmHg 56%
    23:00 +6°C° 0 mm 5 mps 751 mmHg 57%
    Show more